Theta_e
310 312 313 316 323 324 324 325 323 322 321 322 321 320 322 323 322 321 322 322 324 323 324 323 323 324 321 336 348 348 350 351 351 358 356 350 349 350 349 349 348 345 343 339 337 335 334 333 332 331 330 330 332 335 337 339 339 339 338 336 335 333 332 330 324 318 314 313 314 315 315 314 314 313 313 312 312 312 311 311 311 310 310 309 308 309 309 310 311 313 316 320 327 329 329 327 327
311 314 314 317 323 324 325 324 322 322 320 320 321 320 321 322 321 320 321 321 322 322 323 323 322 322 324 341 347 348 352 352 351 354 352 349 349 349 349 349 349 347 344 340 337 335 333 332 332 331 329 329 331 335 337 339 340 339 339 337 335 333 333 332 330 325 318 313 313 314 314 314 314 313 313 312 312 312 311 311 310 310 310 309 312 317 318 315 312 312 315 319 324 327 326 326 327
312 316 318 321 324 323 325 323 323 321 319 320 319 322 322 321 320 320 321 320 321 321 322 321 322 325 333 345 347 350 352 351 352 352 350 350 349 348 348 348 349 347 343 340 337 335 333 332 331 329 328 329 331 335 338 340 341 340 339 338 335 334 333 333 332 330 325 317 313 314 313 314 313 313 313 312 312 312 312 311 311 311 309 312 321 327 328 326 319 312 314 318 322 325 325 326 328
312 319 324 325 324 322 323 325 326 322 319 318 316 321 322 320 321 321 321 321 322 321 322 321 331 342 345 348 347 348 350 350 351 351 350 350 348 347 348 347 347 344 341 339 337 335 333 331 330 327 326 328 332 336 338 340 341 341 339 338 336 333 333 333 333 332 331 325 317 313 313 314 313 314 314 312 312 312 313 312 311 310 310 319 328 330 330 328 321 311 312 316 320 323 324 327 329
313 322 324 325 324 321 323 326 326 322 320 317 315 320 321 321 322 322 321 322 322 322 322 320 337 350 349 349 348 347 349 351 351 351 351 349 348 347 347 346 346 342 338 338 336 334 333 331 328 325 324 326 331 336 338 340 341 341 340 339 336 333 333 333 333 332 332 330 324 317 313 313 314 314 314 313 312 313 314 312 311 311 314 321 326 329 328 322 314 309 311 313 318 322 324 327 328
317 322 322 322 323 321 324 325 324 322 321 320 318 319 320 321 322 321 321 322 322 323 322 322 339 350 350 350 349 349 350 351 351 351 351 349 348 347 346 346 345 341 337 337 335 333 332 329 325 323 323 326 331 336 338 340 341 341 340 340 337 333 333 333 333 333 332 332 330 324 317 314 314 314 315 314 311 314 315 313 313 313 317 322 325 327 324 316 310 309 310 311 316 321 324 326 328
319 320 321 322 321 321 324 325 324 322 322 322 320 320 321 320 321 321 320 321 323 323 321 330 344 350 350 348 349 350 350 350 351 351 350 348 347 347 346 345 344 340 337 337 334 331 330 326 323 321 322 325 331 336 338 340 341 341 340 340 338 334 332 333 333 333 333 332 332 329 324 318 315 314 315 315 312 314 316 316 315 317 321 324 327 327 324 319 312 308 310 310 313 318 322 324 325
319 319 320 320 320 320 323 322 321 321 322 321 320 321 320 321 321 320 321 321 322 324 322 329 342 350 350 348 350 351 351 351 350 350 350 348 347 346 345 344 343 341 338 336 332 329 327 323 321 320 322 326 333 337 339 340 341 341 341 340 339 335 332 334 333 334 333 332 332 330 327 322 317 314 314 315 314 315 316 319 320 321 323 325 327 326 323 320 312 307 309 309 311 316 319 320 323
320 320 320 321 322 320 320 320 319 320 320 319 321 321 320 321 321 321 321 320 321 323 322 325 339 350 349 349 351 351 351 351 350 350 350 349 347 346 345 343 342 341 341 337 330 328 325 322 320 321 324 329 335 337 339 340 340 341 340 340 339 335 332 334 334 334 333 332 331 328 326 324 320 315 314 315 316 319 321 323 324 325 326 327 329 325 321 317 310 308 309 309 311 314 317 321 328
321 320 320 321 323 321 318 317 318 320 320 319 320 319 320 320 320 321 320 321 321 322 327 332 342 350 349 349 351 351 350 350 350 350 349 347 346 345 344 343 342 341 342 337 328 326 323 321 321 322 327 331 334 336 338 339 339 340 340 340 339 335 332 334 334 334 334 331 329 327 326 325 322 316 315 315 317 324 327 329 329 329 330 329 327 323 319 316 312 309 308 310 311 314 319 326 331
321 320 320 321 323 321 319 317 318 320 319 319 319 320 321 320 321 321 319 322 322 330 336 341 348 349 349 349 350 351 350 350 349 348 347 346 345 345 344 343 343 342 342 337 326 325 322 323 324 324 329 333 335 337 338 339 339 339 339 340 339 335 333 335 335 334 333 329 328 328 328 330 325 318 319 317 319 329 332 333 334 332 331 328 324 322 318 317 315 312 309 310 313 317 322 328 331
320 319 319 320 321 320 319 317 317 320 319 319 320 320 320 320 321 320 321 321 322 339 343 343 348 348 350 350 350 351 351 350 348 347 346 346 345 344 344 343 343 342 342 336 325 324 322 324 328 327 329 332 334 336 336 337 338 338 338 339 339 336 334 335 335 335 332 328 329 331 333 334 326 319 321 322 323 331 334 335 336 333 331 326 323 321 319 318 316 314 311 310 314 318 323 328 330
319 319 319 320 320 318 318 316 318 321 319 319 320 320 321 320 321 320 322 320 324 340 344 345 347 349 351 350 350 350 351 350 348 347 346 346 345 344 344 343 343 342 342 337 324 323 322 322 329 328 327 329 331 333 335 335 336 337 337 338 338 336 335 336 335 334 331 330 332 334 335 333 326 320 321 326 329 331 334 336 336 333 329 326 323 322 320 319 318 317 315 311 312 317 324 328 330
318 319 319 321 321 318 318 317 318 319 318 320 320 320 321 320 321 322 321 323 332 341 344 345 343 348 352 351 351 350 351 350 347 347 346 346 345 345 344 343 343 342 343 338 324 323 324 323 327 324 324 327 328 330 332 333 334 335 336 336 337 336 336 336 335 333 331 332 334 335 336 331 328 328 322 323 329 330 334 336 336 331 329 327 324 323 321 321 320 319 317 314 311 315 323 327 329
317 319 319 320 320 318 318 318 317 317 319 321 319 321 320 321 321 322 322 324 334 340 342 343 341 348 353 351 351 350 350 349 347 347 347 346 345 345 344 343 343 343 343 335 324 325 325 323 324 322 325 328 327 327 328 330 331 332 332 334 335 335 336 335 333 332 332 334 336 335 335 332 331 334 328 322 324 327 332 335 333 330 329 328 325 324 323 323 323 322 320 317 313 314 320 327 329
317 317 318 319 318 317 317 317 318 317 320 320 319 321 319 322 321 322 324 322 333 341 341 342 341 346 349 348 348 349 349 348 347 347 347 346 345 345 344 344 343 343 342 331 324 326 325 324 322 324 329 330 329 329 327 327 328 329 330 331 332 334 334 332 332 332 333 334 335 335 334 332 333 334 332 327 324 322 325 330 330 328 328 328 326 326 325 325 326 325 323 321 316 313 317 324 329
317 317 317 318 317 316 317 318 319 317 319 319 320 321 319 321 320 322 322 323 337 342 340 341 341 343 345 346 345 348 349 347 347 347 347 346 345 345 344 344 342 342 339 328 324 326 325 325 324 326 330 330 330 330 327 324 325 327 329 329 331 333 332 331 331 332 333 334 335 335 333 331 333 333 332 331 328 322 319 323 326 326 326 326 326 327 326 326 327 326 325 323 319 315 316 322 328
317 318 318 317 317 316 318 319 318 319 319 319 320 320 319 319 319 321 320 328 341 342 340 341 341 341 342 345 346 348 349 348 348 348 347 347 345 345 344 343 342 341 339 330 324 326 326 325 326 328 329 328 328 328 326 324 325 325 326 328 330 331 331 331 332 333 333 335 335 334 332 331 331 332 332 332 330 326 322 322 323 323 322 322 325 326 326 326 327 326 325 323 321 317 318 322 327
317 319 319 316 316 317 318 319 318 318 318 318 319 319 319 319 318 321 319 328 341 343 344 343 343 345 346 347 348 349 349 348 348 348 347 347 345 345 344 343 342 341 341 335 326 325 328 327 328 328 328 329 329 327 324 323 323 323 325 328 329 330 330 330 331 332 332 334 334 333 332 332 331 331 332 332 331 330 330 327 326 324 321 319 322 326 326 326 326 325 324 324 322 320 320 322 325
317 318 318 317 317 317 318 319 318 318 318 317 318 318 319 319 318 321 317 324 340 344 343 345 345 348 350 349 349 350 349 348 346 346 347 347 345 345 344 343 342 341 342 340 331 327 329 328 328 330 330 331 332 331 325 322 321 322 325 328 331 330 329 331 330 329 331 332 332 332 331 331 332 332 332 333 332 331 331 330 328 327 323 319 320 324 326 325 325 324 323 323 323 323 322 322 323
317 316 316 316 316 317 318 319 319 318 318 317 318 318 318 319 318 320 318 324 341 344 340 343 343 345 350 350 350 350 349 347 345 343 346 346 345 345 345 343 343 342 341 341 337 334 332 329 330 332 333 332 332 333 329 325 324 322 323 326 329 329 328 330 330 329 330 331 332 331 329 330 333 333 333 333 333 331 329 328 327 327 326 322 319 322 326 325 324 324 323 323 323 324 323 322 322
316 315 315 316 316 316 318 319 318 318 318 317 318 318 317 319 318 320 318 319 336 342 337 338 338 340 346 350 351 350 349 347 342 343 346 346 345 345 345 343 342 342 342 341 340 338 335 332 332 333 334 333 333 333 332 331 330 326 323 326 326 326 326 325 326 328 330 330 332 331 328 330 332 333 333 333 334 331 328 328 329 327 325 321 318 320 325 326 325 324 323 323 323 324 326 325 324
316 316 315 316 317 316 318 318 318 318 318 317 317 317 317 318 318 319 319 318 329 336 334 334 335 339 345 349 350 350 349 345 340 342 344 345 344 344 343 341 341 342 342 341 340 339 338 335 333 334 335 335 334 333 333 333 333 330 326 327 327 326 325 322 323 327 330 330 331 331 329 331 332 332 333 333 333 330 328 329 328 325 321 318 316 317 323 326 326 325 323 323 324 328 330 329 328
316 316 316 317 317 317 318 318 318 318 317 317 317 317 317 317 318 318 318 318 329 333 333 334 335 341 345 348 349 349 348 345 341 341 340 344 344 343 342 340 341 342 342 341 340 339 339 338 335 335 336 336 336 334 334 333 334 333 329 328 328 328 327 325 325 326 329 330 330 330 330 331 331 332 333 331 332 329 328 330 325 321 321 319 316 316 321 326 327 325 323 324 327 330 331 330 330
315 316 316 317 317 317 318 318 318 318 318 317 317 317 316 317 318 317 318 317 324 333 336 336 337 342 345 348 348 348 348 345 341 339 341 344 344 342 341 340 341 341 341 341 339 339 339 338 337 337 337 337 335 334 334 334 334 334 332 330 329 329 329 329 328 327 328 329 330 329 328 329 330 332 332 331 331 329 329 330 326 323 323 321 321 319 320 324 326 326 325 325 327 328 329 330 331
316 316 316 316 317 317 317 318 318 318 318 318 317 317 316 318 318 316 319 316 322 335 337 336 338 341 345 348 348 348 347 345 342 342 344 345 342 340 340 340 341 340 340 341 339 339 339 338 339 338 338 336 334 334 334 335 335 334 332 332 331 331 331 331 330 329 329 330 330 329 327 328 329 331 332 331 330 330 330 331 330 327 325 324 327 325 323 325 324 324 326 327 329 328 329 330 331
317 317 317 316 317 317 318 318 318 318 318 318 317 318 317 318 317 316 319 316 323 335 337 338 342 343 345 347 347 347 347 346 345 344 344 344 340 337 338 339 340 340 340 341 340 340 339 338 339 339 337 336 334 335 334 334 335 334 333 333 333 333 332 332 331 331 331 331 331 330 329 327 328 331 332 331 330 330 331 332 332 331 329 327 328 330 329 329 327 326 329 330 331 331 329 329 331
317 317 317 317 317 318 318 318 318 318 318 318 318 318 317 317 317 316 318 317 320 334 339 340 342 342 343 345 345 347 347 348 346 345 344 343 341 338 337 339 340 340 340 340 340 340 339 339 339 338 337 336 335 335 334 335 336 335 334 334 333 333 333 333 332 331 331 331 331 330 330 328 328 331 332 331 330 331 332 332 332 331 332 330 328 330 331 331 330 329 331 332 331 331 330 330 331
316 316 316 316 317 317 318 318 318 318 317 319 318 316 317 316 316 316 318 318 317 331 340 340 340 339 340 342 342 345 347 347 346 345 344 343 342 339 337 339 340 339 341 341 339 338 339 339 338 338 337 336 336 335 334 335 336 336 335 334 334 333 333 333 332 331 331 331 332 331 331 329 329 331 331 331 330 331 331 331 331 330 331 330 327 329 332 332 331 330 332 332 331 331 331 331 331
316 316 316 316 316 316 316 317 317 317 317 318 316 315 318 317 316 316 318 318 316 328 338 337 336 336 337 340 341 343 344 344 346 346 344 344 343 339 337 339 340 339 341 341 340 338 338 338 338 337 337 337 336 335 335 336 336 335 334 334 334 334 333 333 333 332 332 332 332 332 332 330 329 331 331 331 331 331 330 330 330 328 328 328 326 327 331 332 331 331 332 331 331 331 330 331 331
316 315 316 316 315 314 316 316 316 316 316 318 316 315 318 317 316 317 317 318 317 329 337 336 335 335 334 338 340 341 342 342 345 344 341 342 342 340 339 340 340 339 340 340 340 339 337 337 337 336 337 337 336 336 336 336 334 332 332 334 334 334 333 333 333 332 332 331 331 332 332 331 330 331 331 331 331 330 330 329 328 326 326 327 326 325 328 330 330 331 332 331 331 331 330 331 331
316 315 316 316 314 314 315 316 316 316 316 317 316 315 316 316 316 316 318 316 318 331 336 335 336 336 334 336 337 338 341 342 343 341 338 339 341 340 339 341 340 339 339 340 340 340 338 337 337 336 337 337 336 336 336 335 334 332 333 334 334 333 333 332 331 331 331 330 330 331 332 332 331 331 331 331 331 329 328 329 326 325 325 326 325 325 326 327 329 330 331 331 332 331 331 331 330
316 315 317 317 314 313 315 316 316 316 316 316 316 316 316 316 316 316 318 316 319 333 338 336 336 338 338 338 338 339 341 340 338 337 338 337 339 339 338 341 339 337 339 340 340 340 338 337 337 336 336 336 336 335 336 336 334 333 334 334 334 333 332 331 330 329 329 328 329 330 331 332 332 332 331 331 330 327 326 327 325 325 327 326 327 328 326 328 330 330 332 332 332 331 331 331 330
318 316 316 317 315 314 314 316 316 316 317 316 316 317 317 317 317 316 318 318 319 332 338 337 338 339 340 339 339 341 340 337 334 334 336 336 338 340 339 339 337 335 339 339 339 340 339 338 338 337 337 336 336 336 336 336 335 333 334 335 334 333 331 331 329 328 328 328 328 329 330 331 331 330 330 330 328 326 325 326 326 327 329 327 328 328 327 329 330 331 333 331 330 330 330 331 330
318 317 316 316 315 315 315 315 316 317 317 317 317 317 318 318 317 316 318 321 318 326 337 338 337 338 339 338 338 339 338 337 336 336 337 337 339 341 340 339 337 336 339 339 340 340 339 339 338 338 337 337 336 336 337 336 335 334 334 334 333 332 331 331 330 329 328 328 329 329 329 329 328 326 326 328 328 327 326 327 328 329 330 328 326 326 327 330 331 332 332 329 328 331 330 330 330
316 317 316 315 316 316 316 316 317 317 317 318 318 317 317 318 319 318 317 320 319 322 334 337 336 336 336 337 338 338 339 339 339 339 338 338 340 341 337 337 336 334 337 340 340 340 339 339 339 338 337 337 337 337 337 336 335 335 333 333 333 332 331 331 330 330 329 329 329 330 329 328 327 325 324 326 328 327 326 328 328 327 329 329 326 326 327 329 332 332 331 330 330 331 330 329 329
315 316 315 316 316 316 318 318 317 318 318 318 319 319 318 319 322 320 316 318 319 319 326 330 334 334 334 335 336 338 339 339 338 338 337 337 341 340 337 337 336 332 334 339 340 340 339 339 339 338 337 337 337 337 337 336 335 335 333 333 332 331 331 331 331 330 330 329 329 330 328 327 327 325 324 326 327 326 326 328 328 326 328 328 327 328 328 328 330 331 331 332 331 330 330 330 329
316 315 315 317 317 316 318 318 317 320 322 319 320 321 320 322 323 320 318 319 319 318 318 324 331 333 333 335 335 337 338 337 335 335 336 337 340 340 336 336 335 331 331 338 340 339 339 339 338 339 338 338 338 337 337 337 335 335 334 332 332 331 331 331 331 330 329 329 329 329 328 327 326 326 325 326 327 326 327 328 327 327 329 328 327 328 328 329 329 329 330 330 330 330 330 330 330
319 317 315 317 318 317 319 320 318 319 322 321 321 321 322 325 324 321 320 319 318 319 317 320 328 332 334 335 334 336 336 334 334 334 335 336 338 337 333 332 334 330 330 337 339 338 338 338 338 339 339 338 338 337 337 337 335 334 334 332 331 331 331 332 331 330 329 329 329 329 328 327 327 327 326 326 327 327 327 327 327 328 329 327 327 327 326 328 329 329 330 329 328 329 329 330 330
322 319 316 317 319 317 319 321 318 318 321 323 323 322 324 326 324 322 319 317 317 318 318 319 323 329 333 333 332 333 333 333 332 333 334 335 336 334 330 332 334 331 329 334 337 338 338 336 336 338 339 338 338 337 337 336 335 335 334 333 332 331 332 332 331 330 330 329 329 329 329 328 328 327 326 327 327 327 327 327 327 328 327 326 327 327 325 327 329 329 329 328 327 327 328 329 330
323 322 319 318 319 316 318 318 318 320 323 325 323 320 324 326 322 322 320 318 319 318 319 319 318 323 326 329 330 330 330 330 329 330 330 332 335 333 330 331 333 331 327 331 337 339 336 333 333 336 337 338 338 337 337 335 335 335 334 333 332 332 332 331 331 330 330 329 329 329 329 329 327 326 326 327 327 326 326 326 327 327 325 324 326 327 327 328 328 329 328 327 327 327 326 328 329
322 324 320 319 318 317 316 315 317 321 322 325 321 317 325 329 321 321 321 319 320 319 318 318 318 319 320 325 329 329 330 329 327 328 327 330 334 334 332 330 332 332 327 331 338 337 333 329 329 330 332 337 338 337 336 335 335 335 334 334 333 332 332 331 330 329 329 329 329 329 329 328 327 326 326 326 326 325 325 325 324 324 323 323 324 326 329 329 328 327 327 328 328 327 327 327 327
319 321 319 318 318 316 316 315 315 316 318 324 321 316 322 326 321 322 322 319 319 319 319 318 316 317 319 321 324 327 330 329 327 327 326 328 332 333 332 331 335 336 331 334 338 334 330 329 329 330 331 336 337 337 337 336 335 335 334 333 333 333 331 330 329 328 328 329 329 329 329 328 327 326 325 326 326 326 326 324 323 323 324 325 323 325 329 329 328 326 325 328 329 328 328 328 326
318 319 317 317 316 316 316 315 315 316 319 323 323 317 316 319 323 324 321 319 320 320 320 319 317 320 325 326 324 324 328 329 329 330 330 331 333 333 331 332 338 339 335 336 337 332 331 329 329 333 334 333 335 336 336 336 335 335 334 334 333 332 330 329 329 328 328 328 328 328 328 328 326 325 325 326 326 327 327 327 326 325 327 327 325 326 328 329 329 326 326 328 329 329 329 328 326
318 318 317 316 315 316 317 317 317 319 318 319 322 319 313 317 327 325 319 319 319 320 323 322 323 324 328 330 327 325 328 331 332 334 334 335 337 338 337 338 341 339 337 338 337 332 331 329 328 333 336 332 332 335 336 336 335 334 334 333 332 330 329 329 329 327 327 328 327 327 327 327 325 325 326 327 327 328 328 328 328 328 329 329 327 326 327 329 329 327 327 328 328 328 328 328 326
317 317 316 316 316 317 319 320 318 318 318 318 320 319 314 318 327 325 319 319 319 323 324 325 327 327 329 332 331 331 332 333 334 334 335 336 338 340 340 341 341 340 340 340 335 331 332 330 326 329 335 335 331 334 336 335 335 334 333 332 330 329 329 329 329 327 327 327 326 325 326 326 326 326 327 328 329 329 329 329 328 328 329 328 328 327 327 328 328 327 328 328 328 327 327 327 326
316 317 316 316 318 320 321 321 317 315 319 321 319 319 316 317 322 321 319 320 322 325 326 328 330 329 329 332 333 334 335 334 334 335 337 338 339 340 341 341 340 339 340 338 334 331 329 329 327 328 335 336 334 334 335 334 334 334 333 332 330 329 329 328 328 327 327 327 325 325 327 327 328 328 328 328 329 330 329 329 329 329 329 328 329 329 328 328 329 328 328 328 328 328 328 328 327
316 317 316 316 320 322 319 318 316 315 319 321 316 316 316 315 319 321 322 324 326 327 329 330 330 330 330 331 333 335 336 335 333 332 335 340 342 342 341 342 340 339 338 337 335 332 328 328 330 329 333 336 335 334 334 333 333 333 332 331 329 328 328 328 327 328 327 327 326 327 328 328 328 329 329 329 329 330 330 330 329 330 330 330 330 330 329 329 328 328 327 327 329 329 328 327 326
317 317 316 315 317 319 317 316 317 317 320 321 316 314 315 315 319 323 325 328 329 329 330 330 330 331 331 332 333 334 335 337 336 335 338 341 343 343 342 343 342 339 337 336 335 335 334 334 333 332 334 336 335 335 334 333 333 333 332 330 328 327 328 328 327 327 326 325 325 325 327 328 329 329 329 329 330 330 329 329 330 330 330 330 331 330 329 329 328 327 327 327 328 328 327 326 326
317 317 317 318 317 316 317 318 318 318 318 318 318 317 317 319 323 325 328 329 329 329 328 327 328 329 330 331 331 332 333 334 336 337 339 341 342 342 342 342 341 340 337 335 334 335 337 337 337 335 336 337 336 334 334 333 333 333 333 330 327 326 328 328 327 324 323 323 322 323 326 328 328 327 328 328 328 329 329 328 329 329 329 330 330 329 329 328 328 328 327 327 327 327 327 326 325
316 316 318 320 319 316 317 317 317 319 320 320 320 318 319 325 329 327 328 330 329 329 327 326 326 326 328 330 330 331 331 331 332 334 335 337 338 338 340 340 340 339 338 336 335 335 335 336 336 337 337 337 336 334 333 333 333 333 333 329 325 325 327 328 327 324 323 324 325 326 327 328 327 327 328 328 327 327 328 327 328 328 328 328 329 329 328 327 327 328 328 327 326 326 327 326 325
319 317 315 318 321 319 317 318 318 319 321 322 322 321 322 328 332 328 326 328 329 327 326 325 325 326 326 327 328 329 329 329 329 330 331 332 332 332 334 334 334 336 336 335 335 335 334 332 333 335 336 336 335 333 333 334 334 333 332 329 325 326 327 328 328 326 326 327 327 327 328 329 329 328 328 327 326 325 325 324 325 327 327 327 328 328 327 326 326 326 327 327 326 326 326 325 324
320 317 315 317 320 318 316 320 321 318 320 322 319 319 322 325 327 327 326 327 327 326 326 325 325 326 325 326 326 327 327 327 327 328 329 329 328 329 330 329 329 331 332 332 333 334 333 333 332 333 334 335 335 334 333 334 334 333 331 328 326 327 328 328 328 327 328 328 328 328 329 329 329 327 326 325 324 322 322 322 322 324 325 326 327 327 327 326 324 324 327 328 327 326 326 325 323
316 315 317 318 317 316 316 319 320 317 319 321 317 320 327 328 328 328 327 328 327 326 325 324 325 325 324 325 325 325 325 326 326 327 327 327 327 328 328 328 328 329 329 330 331 333 333 334 334 332 333 334 333 333 334 334 333 332 330 328 327 327 327 326 327 327 327 327 327 328 328 327 326 325 323 322 321 321 322 323 325 325 324 324 326 327 327 326 324 323 325 327 327 327 327 325 323
316 315 318 320 318 319 319 317 317 319 320 319 318 326 330 329 328 328 327 327 327 325 324 324 325 325 324 324 324 324 323 324 324 325 326 326 326 326 327 327 327 328 329 329 330 332 332 333 334 334 333 333 331 331 333 334 333 330 328 327 327 328 327 325 326 327 327 326 325 326 326 324 323 323 322 321 320 321 323 325 327 327 324 322 325 328 328 326 324 323 324 325 326 326 326 325 324
317 315 316 319 318 318 320 319 319 321 322 319 320 327 329 327 326 327 327 327 327 325 324 324 324 324 324 323 322 322 322 322 322 323 323 323 323 324 325 326 327 327 328 329 330 331 331 331 332 332 332 332 330 331 333 334 332 329 326 327 329 329 328 327 328 329 328 326 325 324 324 323 322 321 318 318 318 320 324 326 326 326 323 321 322 324 325 324 324 325 324 323 324 325 326 325 324
318 317 316 318 320 320 319 320 318 317 321 322 324 327 327 327 326 326 327 327 326 325 323 322 322 322 322 321 320 320 320 320 320 320 321 321 321 323 324 325 327 327 327 328 329 331 331 331 331 330 330 330 330 330 331 332 332 329 326 328 330 330 328 328 330 330 328 327 325 324 323 321 319 316 315 317 319 320 323 324 323 323 322 323 324 324 323 321 320 323 324 323 323 324 325 324 324
319 320 318 320 325 326 320 320 322 321 320 320 324 329 327 326 325 325 326 325 324 323 322 321 320 319 319 319 319 318 318 318 318 318 318 320 320 322 323 324 326 326 327 327 328 330 330 330 330 328 327 329 329 329 330 331 331 330 328 329 330 330 328 329 330 329 328 328 325 322 320 318 318 316 315 318 320 322 322 322 323 325 324 324 325 326 326 323 320 321 324 323 323 324 325 324 324
Wind_Speed
2 4 7 7 4 3 3 2 0 2 1 4 5 3 7 8 7 4 5 6 7 7 13 13 13 10 5 13 16 18 15 6 3 3 7 11 12 15 15 16 15 12 18 22 22 22 21 19 20 21 21 22 23 23 22 21 21 20 20 19 19 17 17 17 17 16 15 15 16 16 16 16 16 15 15 15 15 15 15 16 17 16 16 17 17 17 17 17 17 17 19 22 25 25 26 27 28
5 7 9 6 3 2 2 2 2 2 2 4 4 4 8 6 1 3 7 8 6 6 10 11 10 8 10 22 19 16 15 13 14 16 19 19 13 11 11 14 13 10 17 22 22 22 21 20 20 20 21 22 23 23 22 21 21 20 19 19 19 18 17 17 16 15 14 13 14 15 15 15 14 14 14 14 14 14 15 16 17 16 16 16 17 17 16 16 16 17 19 22 25 26 28 29 29
6 5 9 6 2 2 4 1 2 2 2 4 5 5 6 2 3 5 7 9 10 9 9 9 7 5 12 18 13 10 8 14 22 23 24 20 15 12 10 11 10 10 18 22 22 22 21 21 19 19 20 22 23 23 22 21 21 20 19 19 19 18 17 16 16 15 13 13 13 13 14 13 13 13 13 13 13 14 15 16 16 16 16 15 16 16 16 15 15 17 19 22 24 26 30 30 29
5 4 7 3 2 3 2 1 3 2 3 4 5 4 2 3 4 6 7 9 8 6 5 7 8 10 17 13 11 13 9 12 19 22 23 19 17 15 11 9 8 11 22 24 22 22 21 20 19 19 20 22 23 23 22 21 20 20 19 19 19 18 17 16 15 14 13 12 12 12 12 12 11 11 11 11 13 14 16 16 16 16 15 14 15 15 14 13 14 16 20 22 24 27 30 29 29
5 6 6 2 1 2 1 1 3 3 5 4 3 5 4 5 6 4 4 4 5 5 2 2 6 11 18 13 9 10 12 16 16 19 22 21 19 15 11 9 6 12 25 25 22 22 20 20 19 19 20 21 22 22 22 21 20 19 19 19 18 18 17 16 15 14 13 12 12 11 11 11 10 9 9 11 13 14 16 17 15 15 14 13 14 13 13 12 14 17 19 22 24 27 29 28 28
8 6 2 3 5 4 2 2 3 4 7 5 4 4 3 6 5 4 6 4 6 6 2 2 9 11 12 13 15 11 12 15 17 19 21 21 18 13 10 8 6 15 26 24 22 21 19 19 19 19 20 21 21 21 21 20 20 19 19 18 18 18 17 16 15 14 13 13 12 11 10 10 9 8 8 11 14 14 16 17 14 13 12 12 12 12 12 12 14 17 19 22 24 27 28 27 26
8 2 2 3 6 3 1 4 5 5 8 7 5 2 3 5 4 4 8 6 5 3 4 7 18 17 8 9 13 12 7 11 18 20 21 20 16 12 10 8 8 17 24 21 21 20 18 18 18 19 19 20 21 20 20 20 20 19 19 18 18 17 17 15 14 14 13 12 12 11 10 9 9 8 8 11 14 14 15 15 14 13 12 12 11 11 11 12 14 16 19 22 24 26 27 26 25
5 1 2 1 2 2 2 4 6 6 7 5 3 2 5 6 5 4 6 3 3 1 8 11 22 18 6 11 10 9 9 8 13 17 21 20 17 15 11 10 12 16 19 19 20 19 18 18 18 18 18 19 19 19 20 19 19 19 18 17 17 17 17 15 13 13 12 12 12 12 10 9 9 9 9 10 12 13 14 14 13 13 12 12 11 10 11 12 14 16 18 21 24 26 26 25 25
2 3 4 1 2 3 4 5 6 8 8 3 4 4 7 6 2 2 3 4 6 3 8 13 19 16 8 18 14 11 12 8 11 15 19 20 18 17 13 13 15 15 15 17 19 18 18 18 17 17 17 18 18 18 19 19 19 18 18 17 17 17 16 15 13 12 11 12 12 12 10 9 9 9 9 9 11 12 13 13 12 11 11 11 10 10 11 12 13 15 18 21 24 26 26 27 27
3 7 5 1 2 4 5 5 6 7 6 5 5 6 7 4 4 3 2 5 7 8 2 14 20 18 14 16 13 13 14 12 14 15 17 19 20 18 17 18 17 13 12 17 20 19 19 18 18 17 17 17 17 17 17 18 19 18 18 17 16 16 16 15 13 12 11 11 11 11 11 10 9 9 9 9 11 12 13 13 10 9 9 10 10 10 11 11 12 14 17 20 24 26 27 28 28
6 9 7 2 3 4 5 5 7 7 5 5 5 10 5 4 5 2 3 5 7 10 11 18 17 19 16 9 12 14 15 15 14 17 17 19 21 20 21 20 16 12 10 16 20 19 20 19 17 17 17 17 16 16 16 17 17 18 17 17 17 17 16 15 13 12 11 11 11 11 10 9 9 9 9 10 11 13 14 13 11 9 9 8 9 10 11 12 12 13 16 19 23 25 27 28 27
6 5 5 3 4 5 5 5 7 6 2 3 4 7 4 5 5 3 6 8 6 12 15 15 13 18 13 4 12 17 18 19 17 18 18 19 23 22 22 20 17 13 10 14 20 20 21 21 18 17 17 17 16 15 15 15 16 16 16 17 17 17 16 14 13 12 11 11 10 10 9 9 9 10 10 11 12 13 14 14 11 10 9 8 10 11 12 13 12 13 14 17 21 23 25 26 26
8 4 2 3 4 4 5 7 6 4 2 1 1 2 5 7 7 7 6 9 8 10 12 17 18 15 9 6 14 19 21 22 19 21 21 20 22 21 21 20 17 15 10 13 19 20 21 21 20 18 17 16 15 14 14 14 14 14 15 16 16 16 15 13 12 12 11 10 9 9 9 9 10 10 10 12 13 13 14 13 12 10 9 8 10 12 12 13 12 12 13 15 18 20 23 25 25
12 9 4 3 4 5 4 6 6 2 1 3 1 3 4 6 9 6 1 3 9 10 10 15 17 13 9 8 11 20 23 22 22 24 25 21 21 20 21 18 16 15 10 13 20 21 21 22 21 19 17 17 15 14 13 13 13 14 14 14 15 15 14 13 12 12 11 10 10 10 10 10 10 10 10 12 13 13 14 12 11 9 9 9 11 12 13 13 12 12 12 14 16 19 22 23 23
16 14 5 3 4 5 4 6 6 2 2 4 4 3 2 5 8 5 3 5 9 13 13 11 10 8 10 10 10 24 25 23 24 25 26 22 21 19 19 16 15 15 11 15 21 21 22 22 21 20 18 18 16 14 13 13 12 12 13 13 14 14 13 13 12 12 11 11 11 10 10 11 11 11 10 10 12 13 14 12 10 10 10 10 11 12 12 12 12 12 12 13 14 17 20 20 21
18 14 2 2 5 4 4 5 5 2 1 2 7 8 3 7 6 6 6 5 8 13 15 11 6 6 15 14 13 26 26 24 26 25 26 22 21 19 18 16 15 14 12 18 22 21 22 22 22 20 19 19 18 16 13 12 12 11 11 12 12 13 13 12 12 11 12 12 11 11 11 12 12 12 11 10 11 12 14 13 12 11 11 10 11 12 13 12 11 11 12 12 13 15 17 18 20
18 11 3 3 5 4 5 3 2 2 1 5 9 11 4 4 6 9 4 1 11 15 14 10 7 10 13 11 13 26 26 25 26 25 25 22 22 21 19 17 15 13 12 19 21 21 22 21 22 21 20 19 17 16 14 13 12 12 11 11 12 12 12 12 12 12 12 12 12 12 12 13 13 12 11 10 10 10 12 13 12 11 10 10 11 12 13 12 11 11 12 12 13 14 16 18 20
13 5 4 5 4 5 5 1 2 2 1 4 5 7 5 4 8 6 2 5 17 14 13 11 11 10 7 8 15 25 25 27 28 27 28 24 24 24 21 19 18 15 14 18 19 20 22 21 21 20 20 19 17 16 15 15 13 13 12 12 12 12 12 12 12 13 13 12 12 12 12 13 13 13 12 11 9 8 9 9 9 8 9 10 11 13 13 12 12 11 12 13 14 15 17 18 18
10 3 3 5 5 7 9 1 5 4 3 4 5 8 4 4 9 4 3 6 16 10 10 12 13 11 8 12 18 24 25 26 27 26 28 26 25 25 22 22 23 20 17 18 19 20 21 21 22 21 21 19 16 15 15 16 15 15 14 14 14 13 13 13 13 13 13 13 13 13 13 13 13 12 11 11 9 8 8 7 6 6 8 9 11 13 14 13 13 12 12 13 14 15 16 17 15
11 6 3 5 4 8 12 5 11 10 9 7 6 10 8 7 8 4 5 6 10 8 8 8 11 14 14 16 19 24 24 22 22 21 23 25 24 23 22 24 25 23 19 19 21 20 19 21 24 23 21 17 14 16 16 16 16 16 15 15 14 14 14 14 13 13 14 13 14 14 14 13 12 12 11 11 9 8 8 6 6 6 6 8 11 14 14 13 13 13 12 13 14 14 15 14 13
9 9 5 5 7 8 7 9 12 11 12 7 8 9 11 8 6 5 9 4 5 7 13 11 12 16 17 19 20 22 23 19 17 19 22 25 23 22 22 23 24 24 22 21 22 22 22 24 25 23 20 17 16 17 19 17 16 16 16 16 15 15 15 15 15 14 15 15 15 15 14 13 12 12 12 11 9 8 7 6 6 6 6 7 11 15 15 14 13 13 12 12 13 13 13 12 12
6 8 10 11 12 7 4 7 7 5 8 5 6 5 9 8 6 7 9 4 4 10 15 13 12 15 18 20 20 19 22 19 18 23 24 25 24 23 22 21 26 26 23 24 24 24 25 25 24 22 21 21 19 19 19 18 16 16 16 16 16 17 17 18 17 16 17 16 15 15 15 14 13 13 12 11 10 8 8 7 6 6 5 6 11 15 16 15 13 13 13 12 13 12 11 10 10
5 6 10 13 14 9 9 6 7 7 6 4 5 6 9 9 7 7 9 8 7 14 13 12 12 14 16 19 19 19 21 19 22 25 23 23 25 24 19 15 23 26 25 26 25 25 24 24 23 22 22 22 21 22 21 19 17 17 18 18 17 17 18 18 18 17 17 16 16 16 15 14 14 14 13 12 10 9 9 8 7 7 5 6 10 15 17 16 14 14 13 13 13 11 10 9 9
8 6 7 13 15 11 11 7 4 4 3 3 7 9 10 7 5 9 10 9 7 17 14 14 14 14 15 17 19 20 20 18 21 23 21 20 20 20 15 10 19 25 25 25 24 25 24 24 23 22 23 22 22 23 22 20 16 17 19 18 17 16 17 17 17 17 17 16 16 17 16 14 13 14 14 13 11 10 10 8 7 8 6 6 9 13 15 16 15 14 13 13 12 10 9 9 8
8 7 8 12 14 12 12 13 8 5 2 6 8 6 9 9 8 10 11 13 4 19 20 17 16 16 16 17 19 18 18 18 19 21 21 18 17 16 11 10 17 20 20 22 23 25 26 25 23 22 23 23 22 21 20 18 14 16 17 16 16 15 16 17 17 16 16 16 16 15 14 14 14 14 14 13 12 10 9 8 9 9 8 7 8 11 13 11 12 14 12 11 10 8 7 7 6
9 10 10 10 12 13 12 11 7 5 6 7 7 6 10 12 10 9 14 18 4 21 21 18 19 17 16 17 18 16 17 17 17 18 16 15 12 8 7 11 15 14 16 20 23 24 27 27 23 22 24 23 22 20 18 18 16 17 17 16 15 15 16 17 17 17 16 16 15 15 14 14 14 13 14 14 13 11 10 8 8 9 9 8 8 10 10 7 9 14 12 9 6 5 6 5 4
7 7 10 11 11 13 12 9 7 8 9 8 5 5 9 12 8 5 13 18 8 23 22 20 22 17 16 16 15 14 14 14 15 15 14 14 9 1 4 11 14 15 17 20 22 24 26 26 24 23 23 22 22 20 19 18 19 18 17 17 16 15 16 18 18 17 17 17 17 15 15 15 14 13 14 15 13 12 11 9 8 8 8 9 10 9 8 5 6 11 11 6 6 7 8 7 7
8 4 6 9 8 11 12 11 11 7 4 6 7 6 9 10 6 7 13 18 14 21 25 22 24 18 16 14 12 12 12 13 13 16 17 17 14 5 9 12 14 17 19 19 22 23 24 24 24 23 22 21 21 21 20 18 19 19 17 17 15 15 16 17 17 16 17 17 17 16 15 15 15 14 15 15 14 13 12 11 10 9 7 6 9 11 10 6 6 10 10 8 10 11 10 11 11
13 8 4 5 5 8 11 11 12 7 3 8 8 4 7 7 8 16 16 18 18 19 28 24 23 20 18 14 12 13 14 14 14 17 17 17 18 11 8 11 14 19 20 17 20 22 23 23 23 23 22 21 21 20 19 18 20 19 18 17 15 14 15 16 16 16 17 17 16 16 16 15 16 15 15 16 15 14 13 12 11 10 8 6 9 12 11 10 9 10 11 11 12 12 11 13 14
10 7 3 3 3 6 11 13 13 9 9 14 8 1 7 6 11 22 19 21 21 18 30 26 23 20 18 16 14 15 15 15 14 16 16 16 19 11 4 9 12 18 22 19 18 20 21 22 22 21 21 22 21 19 18 19 19 16 15 16 15 14 14 15 16 15 17 16 15 15 16 16 16 17 16 17 17 15 14 13 12 10 8 8 9 11 12 14 14 12 13 12 12 12 12 13 12
4 3 3 2 2 7 10 10 11 10 12 15 9 2 8 6 12 22 19 24 20 20 32 27 24 20 18 16 16 16 15 14 14 14 15 15 17 12 4 11 11 14 21 21 18 19 20 20 21 20 20 21 21 19 18 18 17 14 14 15 16 15 14 15 16 16 16 15 15 15 16 16 16 17 17 18 17 16 14 14 13 11 10 9 9 11 13 15 15 15 13 13 13 11 10 11 11
2 1 4 2 5 8 9 9 12 11 9 16 13 2 8 6 13 23 23 29 21 22 28 25 24 21 18 18 17 15 13 12 12 11 14 13 13 11 5 12 12 12 17 19 17 18 19 20 19 18 19 21 19 18 17 16 15 12 13 16 16 15 14 15 16 16 16 15 15 15 16 16 17 18 18 18 18 16 15 15 14 12 11 10 11 11 12 14 15 14 13 14 14 11 10 11 11
2 4 4 4 6 8 7 8 16 15 8 12 10 2 6 7 11 20 24 25 23 25 24 24 24 22 21 20 17 16 14 13 12 11 13 12 10 8 5 10 10 10 15 17 16 18 19 20 18 17 18 19 18 17 17 17 14 11 13 16 15 14 13 15 15 15 16 17 16 16 17 18 19 20 19 19 18 16 16 15 14 14 12 11 11 10 12 14 14 13 15 15 12 10 11 10 10
3 4 5 6 7 7 5 4 12 14 6 7 8 4 7 8 11 18 12 9 20 22 24 24 25 25 24 21 19 18 17 16 15 12 13 13 12 8 5 9 10 9 13 16 16 16 18 18 17 17 18 18 17 16 17 16 13 11 13 15 14 14 14 14 15 15 17 17 16 18 19 19 19 19 19 19 17 16 15 14 14 15 15 13 12 11 13 14 13 13 14 12 10 11 11 10 10
5 5 5 6 7 7 5 3 8 10 7 7 8 5 9 10 10 16 3 17 15 14 25 26 26 28 25 22 21 19 19 19 16 12 14 15 14 11 8 10 11 11 13 15 16 15 16 16 16 17 17 17 17 17 17 15 13 13 14 14 14 15 15 15 16 16 17 16 17 19 20 20 19 17 18 19 17 14 14 13 13 14 15 14 14 14 13 14 14 13 12 11 11 10 9 9 12
9 7 5 6 6 6 5 6 9 10 7 6 8 8 8 9 8 10 3 11 12 14 24 26 26 27 26 24 22 20 20 19 15 14 16 16 14 13 11 13 14 13 12 14 16 15 15 15 16 16 15 16 17 18 17 15 15 15 15 17 16 15 15 16 16 17 17 17 19 21 21 20 20 17 17 19 16 14 14 14 14 15 14 14 15 15 14 15 14 12 12 12 12 10 9 10 12
11 7 3 4 4 6 6 7 11 8 7 5 6 6 4 6 7 9 9 2 5 10 14 19 23 24 25 26 24 22 21 18 18 18 18 16 15 14 13 16 18 15 12 12 15 15 14 14 15 16 16 16 17 19 18 17 17 16 15 17 17 15 16 17 17 17 18 19 20 22 21 21 19 17 17 19 17 15 15 15 14 15 15 14 15 14 14 15 14 12 11 11 11 11 12 12 13
10 7 4 5 3 6 8 7 11 6 6 4 3 4 3 6 6 10 12 8 4 6 8 12 20 24 24 26 26 25 23 20 20 21 20 18 17 17 18 20 20 16 13 14 16 16 14 14 14 16 17 17 17 17 17 17 17 16 14 14 15 14 15 16 17 17 18 19 21 22 21 20 19 17 17 19 18 16 16 15 15 15 13 13 14 13 13 14 13 13 11 11 12 11 12 13 14
6 5 4 5 3 5 8 2 5 3 4 4 4 5 3 6 5 8 10 8 9 11 13 15 21 25 26 27 29 27 25 23 22 22 24 23 21 20 21 22 20 17 16 16 17 17 15 15 14 15 17 17 16 15 16 17 16 15 14 13 14 14 14 14 14 15 16 18 20 21 21 20 19 17 16 18 17 17 16 15 16 14 12 11 12 13 12 12 12 12 11 11 12 12 12 13 15
2 2 2 4 3 3 6 1 1 2 2 4 6 5 2 5 6 7 10 12 13 15 13 14 19 27 29 28 29 29 28 27 26 25 25 24 23 23 24 23 22 20 17 18 19 20 19 17 14 14 15 15 15 15 15 16 16 15 14 14 14 14 14 14 14 14 15 18 21 22 22 21 19 17 16 17 16 16 15 14 15 14 11 10 12 12 11 10 11 11 11 11 11 12 14 15 16
1 1 1 3 5 5 7 5 3 3 3 2 7 4 3 4 5 5 9 12 10 12 12 11 15 20 24 26 28 31 31 30 30 29 26 25 25 25 24 23 23 19 17 20 23 24 20 17 15 13 13 15 15 15 16 17 18 18 17 17 17 16 16 16 17 16 16 19 22 22 22 22 20 18 17 17 17 15 13 12 12 13 12 11 12 12 11 10 11 11 12 12 13 14 15 16 17
2 1 3 4 7 8 9 10 7 5 5 3 5 2 5 4 6 6 7 8 9 11 10 13 20 18 21 27 31 35 34 31 29 27 27 27 26 25 23 21 21 19 18 22 26 25 20 17 16 15 15 17 17 16 18 20 21 21 21 21 20 19 17 18 18 18 18 19 22 23 23 22 21 19 18 17 16 14 12 11 12 13 13 12 13 12 11 10 11 12 13 14 15 16 15 16 18
1 3 4 6 8 8 8 10 6 2 3 4 3 3 4 5 4 6 6 6 9 9 7 13 22 20 13 14 22 33 37 34 31 30 30 30 30 28 26 22 22 22 21 24 27 25 21 19 18 18 18 18 19 19 20 21 22 21 21 20 20 19 17 18 18 17 18 19 21 22 22 22 21 19 17 15 14 12 12 12 12 12 12 12 13 13 11 11 11 11 13 15 16 16 16 17 19
3 5 7 8 9 9 10 8 4 2 3 5 3 2 1 4 5 6 6 6 7 6 7 11 11 4 10 16 5 16 31 35 33 29 28 27 28 29 27 25 24 24 25 27 28 26 23 22 20 20 20 17 18 21 22 22 22 21 20 19 18 17 16 18 18 17 18 19 19 20 21 21 21 18 16 14 12 11 12 11 10 12 14 14 13 12 12 11 12 12 12 15 16 16 16 17 19
4 6 9 9 7 8 6 2 1 2 3 5 6 3 1 4 5 7 7 8 8 5 6 10 13 18 24 24 15 2 17 22 20 18 18 17 18 20 22 23 23 23 26 27 26 25 25 25 22 22 21 17 18 22 23 23 21 21 21 19 18 18 17 18 19 19 20 20 19 19 21 21 20 18 16 14 12 11 11 10 10 12 15 14 12 12 12 12 13 13 13 15 15 14 15 16 18
6 8 9 7 6 3 3 4 3 4 4 4 5 1 1 4 5 5 5 6 7 3 8 12 19 25 26 24 16 8 10 13 11 11 14 14 15 16 18 20 21 21 23 25 26 27 28 27 24 25 25 22 20 22 24 24 22 21 22 20 20 22 20 21 22 21 22 21 20 19 19 19 18 17 16 13 11 11 10 9 10 12 13 12 12 12 13 13 13 12 12 15 14 14 15 17 18
7 7 5 4 5 1 5 3 3 4 2 5 6 3 2 3 5 5 3 3 2 6 8 10 18 24 26 25 21 16 14 14 11 8 8 10 13 16 18 20 19 18 20 25 28 29 28 27 26 26 26 24 22 21 22 24 23 23 23 23 23 25 24 24 25 24 23 21 20 19 17 17 16 15 14 13 12 11 11 10 10 12 12 13 13 13 13 13 12 11 12 14 14 14 15 17 18
3 2 1 2 4 3 4 4 2 1 5 5 6 6 3 2 5 4 5 9 10 10 9 10 14 19 23 24 21 19 17 14 13 11 8 6 9 13 16 18 17 16 18 22 26 27 25 25 26 26 25 23 22 21 21 24 25 25 25 25 25 25 26 25 25 24 23 21 20 18 17 17 16 15 14 14 13 12 12 11 11 12 12 13 13 13 13 12 12 11 11 13 13 14 15 16 17
4 2 1 2 2 3 2 1 1 3 5 6 6 5 4 2 2 5 9 11 12 12 12 14 16 19 24 24 24 23 19 15 11 11 9 8 10 12 13 13 14 15 15 17 21 23 23 23 24 25 25 24 23 21 22 26 27 27 27 26 25 25 26 24 23 24 23 21 21 20 19 18 18 18 16 14 13 13 12 11 11 10 9 10 10 11 12 12 12 11 10 12 13 13 14 15 15
5 4 3 3 2 1 1 3 3 3 5 6 4 1 2 2 3 6 9 11 13 17 19 22 23 23 24 25 26 24 19 16 11 7 6 8 10 11 12 13 13 13 13 16 21 24 24 23 23 24 24 23 22 22 24 28 29 28 27 27 26 26 26 24 23 23 23 22 22 21 20 19 18 17 16 14 13 13 12 11 10 9 8 8 9 10 11 11 12 12 12 12 12 12 14 13 13
5 5 5 4 4 3 3 3 3 4 3 2 1 1 0 2 1 3 10 14 17 21 23 26 27 26 27 28 26 23 20 18 13 9 5 2 4 6 9 11 12 12 11 15 21 24 24 23 23 23 23 23 22 23 27 30 30 30 29 28 28 26 25 24 23 23 23 22 22 21 20 18 16 15 15 14 14 13 12 11 10 10 9 8 8 9 11 12 13 12 12 12 12 13 14 13 14
3 4 5 4 4 4 3 4 4 4 2 2 1 1 2 5 3 3 10 13 17 20 23 26 26 25 29 29 25 22 21 21 17 13 9 4 3 3 4 6 8 10 13 18 22 23 23 25 24 23 23 23 22 23 28 31 32 32 30 29 28 26 25 25 24 23 22 21 21 21 19 16 15 15 14 13 13 12 11 10 11 10 9 9 9 9 10 12 13 13 12 13 14 14 14 13 14
1 1 4 6 7 6 2 4 3 3 4 1 3 2 2 1 2 8 11 11 14 17 19 21 22 24 27 26 25 23 22 21 20 16 13 9 8 8 8 8 6 5 8 15 21 22 22 24 23 21 21 23 22 23 27 32 33 32 32 31 30 28 27 27 26 24 22 20 19 18 17 16 15 13 12 12 12 10 10 10 10 10 10 9 9 9 9 10 11 12 12 13 14 14 14 14 14
1 2 3 4 5 5 2 1 2 2 2 3 3 5 2 2 1 8 12 11 12 13 14 17 20 23 24 23 25 25 22 21 21 18 15 12 11 13 14 13 10 6 5 7 13 17 18 19 19 19 21 21 20 22 27 32 33 33 33 32 30 29 29 28 26 24 22 21 19 18 17 16 14 11 11 11 11 10 11 10 9 8 9 10 10 10 10 10 10 11 11 11 12 12 13 15 14
6 3 2 2 3 4 1 1 2 1 1 3 1 6 4 2 1 5 9 10 10 11 12 14 17 20 21 22 24 25 24 23 22 21 19 18 18 17 18 18 16 12 9 9 10 13 14 15 17 18 20 20 20 23 28 32 32 33 33 31 30 30 29 29 27 25 23 22 20 19 16 14 12 11 11 11 11 12 13 12 10 8 7 10 12 12 11 10 10 12 12 12 13 13 14 16 16
6 5 3 0 4 4 2 2 3 3 2 2 1 4 2 1 2 3 6 7 7 10 11 11 14 18 20 22 23 24 24 24 24 23 22 22 23 22 21 20 18 16 13 11 10 11 13 13 15 16 15 16 19 24 29 32 32 33 32 31 31 32 30 30 29 27 25 23 21 19 16 14 13 13 12 12 13 15 17 15 11 9 9 11 12 12 12 11 11 11 12 13 14 14 14 16 17
1 3 2 2 1 1 1 2 2 3 3 2 1 2 1 2 2 3 6 7 8 10 11 11 15 19 21 22 23 24 25 26 26 25 25 25 25 24 23 21 18 14 12 10 8 9 10 10 11 10 11 15 19 23 29 31 31 32 32 31 33 32 30 30 31 29 26 25 22 20 17 15 15 14 13 14 14 15 16 14 10 9 10 11 12 12 11 11 12 11 11 12 13 13 15 15 16
5 3 2 3 3 2 1 2 2 1 2 1 3 2 1 2 2 3 5 6 9 12 12 12 16 20 21 22 23 24 25 26 26 27 27 27 26 24 23 21 18 15 13 11 7 6 5 6 7 6 10 16 17 19 26 29 29 31 31 31 32 31 29 30 31 30 27 25 23 20 18 16 15 14 14 14 14 15 14 12 11 10 9 9 11 13 11 10 11 11 10 11 12 13 15 15 15
Wind_Direction
167 136 126 124 96 48 24 61 152 250 180 265 259 242 264 239 244 314 11 47 67 33 35 46 61 57 58 109 106 76 55 39 89 85 133 139 149 170 175 162 159 167 172 167 160 156 154 152 148 145 147 148 151 154 157 159 155 151 147 145 142 139 134 131 130 132 138 141 144 145 145 142 140 139 136 134 133 133 132 126 121 116 112 106 101 97 94 93 93 95 99 106 110 111 109 108 107
168 150 131 118 69 24 331 147 175 278 187 265 265 217 256 278 325 51 44 52 59 49 40 30 54 62 87 107 102 72 58 66 93 103 118 137 144 155 171 164 164 169 171 170 162 157 155 152 149 147 148 150 153 156 160 161 158 153 151 148 146 143 137 133 130 129 134 139 145 146 147 146 143 143 140 138 138 140 139 130 125 120 114 109 102 96 91 91 94 99 102 105 109 111 111 110 108
175 159 126 105 34 262 291 277 204 254 219 258 270 238 237 271 85 90 69 69 64 51 32 17 29 53 78 82 76 80 93 95 106 113 121 141 142 147 181 172 167 178 174 173 165 159 156 152 151 148 149 152 155 159 162 163 160 157 154 152 150 147 142 137 132 130 132 136 143 146 148 147 146 147 145 144 144 146 144 134 127 122 118 111 101 94 90 90 94 101 106 108 110 113 113 112 109
185 154 120 91 336 227 263 256 197 205 240 252 274 289 131 106 63 76 68 61 64 56 25 34 45 63 80 83 86 90 104 116 127 126 130 146 145 158 183 167 163 178 174 171 165 159 157 153 151 151 152 155 158 162 164 164 162 159 158 156 154 151 148 142 136 134 133 136 139 143 147 148 149 150 148 150 151 151 147 137 131 126 122 112 101 97 96 96 97 102 108 111 112 115 117 114 111
163 143 122 106 311 247 293 232 209 195 227 221 250 309 54 66 29 34 49 58 82 81 35 62 72 70 75 75 82 100 118 120 134 136 139 146 148 165 173 167 175 175 171 166 162 159 158 154 152 155 156 158 160 163 165 165 163 162 161 159 158 155 152 148 143 139 137 137 139 143 148 152 152 151 149 154 156 154 150 142 136 132 125 115 108 106 106 105 103 105 110 114 116 119 121 118 114
137 140 160 220 262 296 320 256 255 243 241 233 231 286 60 71 32 347 343 41 99 102 101 82 109 100 75 70 70 94 137 133 141 145 145 149 154 172 176 180 181 170 169 162 159 159 159 156 155 157 158 160 161 164 166 166 165 165 164 162 160 159 157 154 148 144 141 140 142 145 150 155 154 153 149 156 159 156 151 144 143 138 127 117 111 109 110 111 109 109 112 117 120 123 124 121 117
127 127 199 218 260 274 271 249 258 262 261 252 213 231 68 65 44 355 344 34 75 106 123 117 116 103 83 101 72 72 138 152 148 149 147 149 153 163 175 174 156 161 166 159 158 160 160 156 155 157 158 159 160 163 166 166 167 166 166 164 162 162 160 158 153 147 146 145 146 148 150 154 156 156 152 158 160 154 148 143 144 142 130 122 115 116 116 114 114 115 116 120 124 126 127 124 119
114 280 260 186 260 233 217 247 251 249 265 264 174 131 81 72 56 21 348 16 322 162 139 146 116 91 70 110 83 81 124 145 149 155 152 152 149 146 156 158 151 156 161 160 159 160 159 154 153 154 154 156 157 161 164 165 168 167 168 166 164 164 163 161 157 152 151 152 151 153 154 156 158 159 155 157 155 148 144 138 139 141 133 128 125 127 125 120 121 120 118 122 127 129 129 126 121
114 241 273 232 228 256 244 251 248 243 253 241 151 125 98 101 112 56 328 313 299 254 183 179 124 104 104 97 91 107 117 135 141 146 154 158 156 151 159 164 163 157 154 160 163 161 156 151 150 150 150 151 154 158 161 165 168 169 169 168 165 165 166 165 161 159 159 159 158 158 159 157 155 159 158 154 148 140 136 129 130 137 135 135 137 136 131 125 125 122 118 122 128 131 131 127 121
237 224 242 247 234 265 264 259 256 255 239 188 139 101 85 78 79 71 316 290 305 316 171 132 111 112 117 95 98 117 123 138 133 134 147 152 152 156 167 170 174 168 152 158 163 161 153 148 148 148 146 146 151 155 159 164 167 169 169 168 167 168 169 168 165 166 167 165 164 163 164 158 155 161 160 155 146 137 132 124 126 139 145 150 150 143 134 128 126 122 120 122 128 132 131 126 120
245 223 217 245 253 251 255 254 260 261 205 166 104 90 87 88 81 36 3 314 332 3 56 98 98 104 103 85 109 129 135 139 134 133 140 146 151 160 171 172 180 183 160 159 164 160 150 144 145 145 143 145 149 152 155 161 165 167 169 169 170 172 172 172 170 172 175 172 170 168 170 162 158 161 156 154 146 141 137 131 139 156 164 167 158 148 138 132 129 125 123 126 130 132 130 124 120
243 237 213 225 236 230 247 257 261 270 202 118 97 107 101 96 91 32 33 336 355 43 58 94 122 112 95 77 126 144 147 147 144 134 136 147 158 167 178 177 182 188 170 164 165 158 148 142 141 141 141 144 147 150 153 156 161 165 169 173 174 175 175 176 175 177 181 178 175 172 172 166 161 160 154 149 146 146 143 142 157 170 175 175 161 152 143 137 133 127 125 129 133 132 129 124 120
234 259 217 229 243 240 267 272 275 308 4 60 221 117 59 68 71 52 25 329 2 49 74 112 134 114 93 126 138 157 161 161 153 139 142 155 167 174 183 185 186 187 178 173 166 156 147 141 139 141 140 140 145 148 150 152 156 162 166 172 175 177 178 178 178 179 183 184 180 175 169 163 158 156 154 148 146 150 150 154 169 179 181 172 162 155 148 141 134 131 127 129 134 132 129 125 121
228 241 229 254 270 280 283 277 286 22 243 259 105 73 43 55 80 88 355 343 52 82 100 117 131 106 106 132 149 171 172 169 159 148 149 161 175 177 185 187 189 187 183 179 168 155 145 140 138 139 137 135 141 144 149 152 154 159 161 167 171 176 178 178 179 181 186 186 178 173 165 157 153 152 155 157 155 158 161 167 175 184 185 170 164 160 151 144 137 133 126 124 130 133 131 128 124
230 243 244 268 280 289 273 270 283 106 220 265 95 64 0 69 82 93 54 75 97 114 101 96 120 106 150 170 183 182 177 171 164 156 152 163 175 178 187 183 185 186 179 174 166 155 144 139 138 135 134 134 138 141 147 153 156 159 160 164 168 173 175 176 180 183 186 182 175 171 161 154 154 151 154 163 168 172 176 180 182 186 185 170 166 164 156 147 140 134 124 119 123 135 136 131 128
232 245 273 258 269 284 271 284 312 86 249 324 56 9 11 98 84 75 39 53 92 105 97 86 100 111 166 183 194 180 175 170 165 158 152 161 171 177 186 180 181 180 170 169 162 150 142 138 137 134 133 135 138 139 145 152 158 162 163 166 167 169 171 177 183 183 184 180 177 169 159 156 157 157 157 160 168 180 186 191 191 188 183 173 170 169 163 152 144 136 125 117 116 131 139 135 131
233 238 252 252 260 257 270 287 12 112 238 26 38 360 15 84 49 73 32 44 94 95 99 92 116 128 166 193 187 173 170 169 164 158 154 161 170 175 182 176 172 167 156 162 157 146 141 138 136 134 132 133 135 137 143 150 157 164 167 168 168 171 174 182 186 182 183 180 176 168 162 162 161 162 162 159 164 174 186 193 194 190 182 177 176 174 169 160 151 141 129 119 113 122 134 136 131
235 216 217 243 255 240 265 235 101 150 151 28 53 8 30 44 7 54 4 121 110 104 111 114 132 138 175 173 167 172 168 166 164 161 158 161 170 173 176 172 167 161 146 150 155 147 140 139 137 135 132 130 131 135 142 148 155 164 165 168 170 176 179 186 186 183 183 179 175 171 170 168 166 167 163 165 168 164 169 184 189 184 179 177 178 177 174 167 157 148 137 127 118 120 129 132 127
229 196 209 231 226 241 271 16 68 58 34 4 65 40 23 1 353 21 357 98 114 101 97 103 113 122 151 155 166 172 165 167 168 164 163 166 172 175 173 169 168 164 150 146 151 150 145 145 142 136 133 130 134 140 146 149 153 158 163 169 173 177 181 185 186 186 185 180 176 177 179 174 173 173 167 169 171 163 159 168 180 178 178 176 177 179 177 169 161 154 146 137 128 126 130 130 127
217 208 239 243 233 267 288 17 56 38 40 12 19 20 342 337 15 45 340 39 100 112 119 107 118 139 155 163 170 165 163 170 166 161 166 171 175 180 175 169 171 166 158 150 150 159 162 156 148 144 143 142 148 151 150 152 154 158 166 172 174 179 182 184 188 189 187 187 185 185 186 182 180 178 174 175 174 170 168 175 187 190 187 180 179 180 178 170 161 158 154 147 138 133 135 134 133
198 202 226 250 269 281 308 45 60 40 46 17 338 347 321 320 37 8 323 13 94 156 164 163 161 167 171 167 164 163 166 165 165 173 176 178 179 184 184 178 172 164 165 164 158 163 167 164 158 159 160 155 159 158 152 152 155 163 172 175 177 182 184 189 193 190 187 192 193 190 188 184 185 185 180 176 175 175 179 185 189 195 193 185 183 180 178 174 164 160 158 152 148 143 143 141 138
189 221 226 237 260 264 318 26 79 61 37 4 325 314 300 318 12 344 315 293 189 172 169 175 175 182 184 167 159 166 170 167 178 186 184 187 188 185 188 184 171 167 175 174 164 160 164 171 170 169 165 159 163 164 158 156 158 166 172 176 180 185 190 194 195 192 191 193 195 195 193 188 190 192 187 178 177 175 176 179 177 190 195 187 186 180 178 177 171 166 162 159 158 156 156 150 145
220 251 236 242 253 255 289 321 101 81 31 5 323 308 322 355 -0 312 304 294 194 163 163 166 169 185 181 165 170 181 179 179 184 187 191 197 197 187 187 188 175 177 180 170 162 162 166 172 173 172 165 162 166 166 164 160 162 167 168 176 182 186 191 194 194 195 196 196 197 199 200 198 195 195 193 188 183 176 173 176 179 186 185 178 184 183 181 179 176 172 169 168 167 170 169 158 156
232 260 248 258 261 261 283 299 70 58 28 308 302 313 327 353 331 298 301 303 177 162 163 153 158 174 167 164 181 191 189 192 188 190 201 204 203 190 185 198 185 181 175 166 165 166 171 174 171 172 165 164 171 171 168 162 165 171 170 175 182 186 189 191 195 198 201 201 200 202 204 204 201 199 199 197 190 181 176 183 189 177 151 154 177 181 181 180 180 178 177 178 176 181 175 160 165
222 250 253 266 274 278 289 292 300 318 292 272 279 283 289 276 277 284 280 296 224 162 158 146 155 163 160 172 186 194 197 201 196 195 203 206 206 193 188 206 189 179 172 172 174 171 176 178 172 169 166 168 176 177 172 166 169 173 172 175 180 183 187 193 197 202 206 206 204 204 205 204 203 204 203 200 194 188 185 190 187 169 144 138 162 171 167 169 179 178 177 182 181 187 180 168 181
202 233 250 257 270 278 283 274 255 265 248 240 249 243 257 253 257 271 265 283 254 152 155 152 158 161 164 182 193 199 203 202 198 197 201 203 208 199 203 210 191 185 186 181 177 173 178 179 173 168 169 175 181 183 181 175 174 174 176 177 179 180 186 195 198 203 208 211 211 206 206 206 204 206 204 201 196 190 188 185 175 162 150 138 150 167 152 145 182 177 165 168 182 213 212 204 225
206 230 254 256 266 278 284 281 249 235 234 232 242 245 263 259 246 246 246 258 210 151 156 156 150 154 169 187 196 200 208 202 194 199 204 209 215 278 245 207 184 196 201 186 179 176 178 179 174 170 173 181 186 189 186 179 176 178 180 180 181 181 187 197 200 206 212 213 212 208 210 209 207 208 205 203 195 188 182 170 159 154 154 143 142 161 154 146 186 170 155 168 207 228 229 232 241
282 277 263 266 289 298 295 300 288 264 216 233 250 255 275 276 258 243 238 253 235 161 153 150 146 156 171 186 194 192 204 201 199 208 211 216 216 227 249 213 179 195 199 182 181 181 181 180 176 173 175 182 185 187 186 179 179 182 184 185 187 186 190 199 203 208 211 209 209 211 212 210 208 205 202 202 194 187 178 163 157 155 160 153 149 160 164 177 185 165 168 193 209 220 232 235 224
281 282 289 288 304 291 269 262 264 262 211 225 238 261 270 259 242 252 247 256 249 166 149 148 150 162 166 171 186 188 201 207 212 215 213 218 212 208 226 206 187 195 191 177 179 180 183 182 178 175 171 178 185 188 187 179 182 187 186 189 194 192 192 199 204 206 205 205 209 211 210 208 206 201 199 197 191 186 179 170 168 167 169 176 178 173 171 186 189 179 189 197 204 218 230 223 208
262 266 279 300 309 270 243 235 231 226 226 221 211 243 265 246 235 248 243 247 249 163 148 153 156 168 168 167 182 191 202 211 216 215 212 211 208 206 172 174 192 202 194 186 180 176 182 184 181 177 167 175 188 191 190 183 187 192 188 192 199 200 198 203 207 206 205 207 211 210 207 206 203 200 196 191 188 187 185 183 185 187 186 188 194 191 184 190 193 191 198 204 214 222 225 220 212
256 271 265 228 260 266 242 221 206 209 219 197 165 203 256 257 251 254 243 240 239 153 150 162 166 175 174 176 190 199 207 213 218 214 203 201 206 218 175 160 188 209 201 196 187 174 180 186 185 181 169 174 188 188 188 188 189 193 195 200 203 202 202 207 212 210 210 211 213 211 205 204 201 197 193 192 192 192 195 197 195 196 197 194 196 196 192 194 196 197 200 210 218 217 215 220 222
210 234 286 220 209 255 253 221 197 198 194 159 139 240 259 261 255 261 259 241 220 145 151 164 164 171 176 189 202 208 216 218 223 213 195 197 208 215 164 154 184 221 216 204 189 175 181 190 188 183 174 177 187 184 184 189 188 191 201 203 203 203 202 208 213 214 214 211 212 212 205 201 198 195 195 197 196 196 204 206 201 199 199 197 196 193 191 192 193 195 203 212 214 209 209 221 224
215 181 238 238 223 250 267 234 196 188 175 145 138 197 260 277 258 273 282 241 193 139 148 162 160 170 179 190 201 207 214 220 227 214 195 194 197 198 157 153 180 223 228 213 192 176 182 190 189 187 179 179 186 186 186 187 185 193 204 204 204 207 209 209 206 209 210 207 207 205 201 199 196 196 196 198 203 209 214 206 195 194 195 194 193 191 191 195 193 192 206 213 215 215 213 217 216
267 205 219 240 238 246 268 235 183 176 162 146 151 184 248 274 274 289 314 157 152 135 149 161 161 172 181 184 190 199 205 210 219 206 188 192 194 195 173 157 174 209 222 217 202 184 186 189 190 190 182 180 184 187 190 187 183 192 203 208 210 208 209 209 203 203 204 204 204 199 196 193 194 199 200 203 212 217 213 203 195 194 194 193 195 196 194 200 201 198 209 217 218 220 210 196 198
231 205 210 242 247 247 242 194 172 169 150 149 161 195 248 262 275 290 328 126 141 148 156 164 167 173 179 180 184 194 200 205 211 194 181 194 197 196 186 158 168 200 210 212 208 196 194 192 191 193 187 183 181 181 189 190 183 185 194 205 211 209 209 209 203 200 201 204 205 197 193 191 196 208 209 208 212 208 200 197 200 203 201 196 199 203 199 202 208 207 211 214 212 208 201 195 192
238 230 205 228 252 261 240 181 175 172 152 154 170 190 239 262 273 293 305 144 169 174 163 168 174 174 175 178 183 192 200 201 194 182 184 197 193 186 181 155 162 195 204 206 206 201 198 193 192 192 191 190 182 178 187 190 183 182 191 198 202 209 212 207 201 202 205 207 205 198 195 197 205 216 210 204 204 198 198 201 203 211 212 201 202 207 204 205 212 216 212 206 205 192 185 196 191
256 269 252 269 278 288 279 177 170 160 138 179 194 185 237 287 295 302 314 303 203 199 180 173 174 174 175 178 185 193 197 194 187 185 187 192 185 175 170 156 162 187 201 206 202 195 191 189 194 193 190 194 186 181 186 188 185 182 191 198 199 204 208 204 201 204 203 203 204 202 201 201 207 214 203 196 199 196 200 205 204 210 212 203 203 207 207 209 215 225 220 204 204 196 185 188 190
268 285 311 320 293 291 296 184 169 132 106 196 177 98 326 315 310 298 304 309 268 227 210 185 173 172 177 182 189 195 192 185 187 189 184 184 180 169 167 164 164 175 191 201 192 185 184 182 196 199 191 192 191 189 186 186 188 187 189 199 200 196 200 208 206 199 195 200 204 203 203 200 201 205 196 193 200 200 202 206 204 205 205 204 205 207 209 212 216 223 219 205 203 199 188 187 190
274 288 284 293 286 311 315 178 157 96 110 193 140 106 282 290 294 296 300 289 274 260 231 198 177 174 183 189 192 196 193 189 192 193 188 186 183 176 179 177 167 169 187 193 185 186 186 178 191 203 197 193 193 192 188 186 190 189 185 192 197 190 194 208 205 194 194 200 203 202 201 199 197 198 192 192 199 201 201 204 206 202 199 205 205 204 209 213 218 219 211 207 205 197 193 190 188
307 312 263 272 287 315 311 301 180 295 203 170 130 122 257 292 302 300 287 271 274 277 251 208 190 185 190 197 198 198 199 200 200 199 194 189 187 191 193 181 164 166 181 186 190 199 192 178 181 195 203 202 193 188 189 190 189 187 183 186 193 190 189 197 199 198 201 202 201 200 199 197 197 196 191 194 199 200 199 203 208 202 201 211 204 202 211 216 221 218 210 210 207 201 199 192 188
340 328 260 288 304 292 292 303 308 322 331 106 109 64 324 275 271 279 278 277 280 281 269 249 235 209 198 204 204 203 205 207 207 207 208 203 197 197 194 178 164 169 184 188 195 202 194 183 177 183 205 208 196 190 188 188 185 181 180 180 185 187 188 193 197 200 202 199 197 197 198 195 195 195 194 197 200 201 202 206 208 205 209 217 209 205 211 216 218 217 213 211 207 205 204 197 192
357 283 228 256 287 289 300 314 332 12 339 315 104 52 305 261 243 255 274 284 279 274 265 253 254 238 211 206 205 206 204 206 214 218 221 215 204 199 196 182 175 181 189 189 192 195 197 196 184 181 199 205 202 199 193 188 185 183 182 180 182 187 189 191 194 197 196 193 191 193 196 193 191 191 192 196 198 200 204 208 208 208 210 216 216 210 209 212 213 212 212 209 206 204 205 203 195
328 263 241 239 251 267 280 289 309 12 280 282 92 125 278 301 279 259 260 256 256 271 285 257 246 239 232 221 212 211 207 204 211 219 223 218 207 206 203 192 189 187 182 185 188 191 201 203 191 186 191 198 202 203 200 194 190 190 188 185 188 192 192 190 187 190 192 187 182 187 190 189 190 190 190 194 198 202 206 209 209 205 204 213 219 213 208 210 207 205 206 205 206 203 202 204 197
215 241 251 244 234 235 243 249 259 265 269 306 12 97 251 296 281 277 283 274 264 272 300 291 259 209 44 34 43 217 213 207 207 212 217 213 205 205 206 201 197 188 179 185 192 195 200 199 196 193 190 195 202 200 201 200 195 194 189 188 194 194 191 187 181 182 186 182 179 182 185 187 189 191 193 196 199 205 206 205 205 201 199 206 216 212 206 204 200 200 199 197 203 204 201 201 200
212 226 243 250 244 227 218 180 247 302 345 326 323 355 314 267 272 289 288 273 280 316 16 21 32 49 50 46 48 209 211 200 199 205 207 203 194 192 197 198 194 185 180 187 197 199 196 193 196 198 194 201 205 196 198 201 198 196 190 188 188 185 185 181 176 176 176 176 176 178 181 185 188 191 194 195 195 197 200 201 202 204 202 201 209 210 202 200 197 195 194 194 199 201 198 198 201
211 223 244 270 281 243 106 72 20 6 15 293 282 292 265 280 289 294 289 263 266 353 54 58 46 40 40 47 63 100 156 163 174 202 212 215 207 191 189 193 191 187 186 190 196 195 191 190 196 201 197 199 203 194 194 199 195 190 188 185 179 175 178 177 172 172 172 173 174 175 179 182 184 188 190 189 189 189 191 194 195 203 204 199 206 207 197 196 194 188 189 193 196 196 194 196 199
203 209 237 291 302 22 79 53 34 18 322 257 263 252 203 282 288 283 330 6 47 56 49 51 51 44 39 47 66 92 124 145 156 184 216 225 218 204 200 202 199 199 200 196 193 192 191 192 197 203 198 195 199 193 192 197 190 184 184 182 177 173 174 174 171 171 172 175 176 175 178 179 178 183 185 181 182 184 182 180 184 194 195 192 197 195 186 187 188 187 189 189 193 195 193 195 197
147 124 55 18 339 14 45 28 57 231 266 256 260 270 247 245 286 311 42 51 54 58 50 46 50 48 46 51 61 74 94 124 156 185 203 197 193 197 203 208 209 210 208 198 193 193 195 196 199 205 202 198 199 192 192 197 188 182 184 182 179 177 174 173 171 170 171 173 175 174 175 175 175 179 180 174 174 179 177 173 181 188 188 189 191 182 174 178 182 185 191 189 188 193 195 195 196
106 76 51 81 335 0 45 354 193 206 241 233 227 260 255 195 343 19 57 58 52 56 57 56 56 50 47 49 53 58 70 90 127 168 180 168 170 183 195 206 212 215 210 201 196 193 194 199 205 208 205 201 200 193 191 195 187 182 185 183 180 179 177 175 171 169 168 167 168 169 169 170 171 174 174 168 169 174 171 169 179 184 182 189 191 176 164 174 183 180 188 193 189 194 197 195 196
150 164 147 147 155 75 215 229 220 219 241 233 185 173 260 143 37 26 62 66 59 57 53 54 57 53 48 48 48 48 51 57 71 105 136 149 158 174 189 199 206 214 211 202 197 194 194 197 201 207 208 205 202 196 192 190 184 185 188 182 178 178 176 174 169 168 166 163 164 165 165 167 167 166 164 163 166 169 165 162 172 179 174 178 186 174 161 168 182 181 183 192 194 198 197 193 199
184 178 151 156 162 160 205 207 194 210 255 285 117 95 172 140 268 352 64 69 63 58 52 51 52 51 51 49 46 43 37 33 34 38 54 125 155 178 194 201 209 218 221 207 196 197 202 200 198 203 207 210 209 196 188 186 184 187 189 182 176 176 174 171 168 167 165 161 162 163 163 164 161 159 160 163 165 166 166 160 161 169 170 169 177 176 164 165 176 181 182 187 192 194 193 194 200
224 172 139 174 196 170 203 227 205 177 107 349 292 107 100 140 176 28 59 63 55 50 48 50 49 48 50 46 42 39 33 29 25 23 22 0 324 281 250 251 244 236 233 219 202 199 207 207 207 208 202 206 213 199 186 186 187 189 188 181 176 173 173 170 165 164 163 160 160 160 159 159 158 160 164 165 166 168 169 161 157 164 166 163 168 173 167 162 170 178 181 184 186 185 189 194 196
293 165 169 207 205 173 191 265 261 130 107 269 218 123 29 106 81 25 32 47 47 41 40 46 45 46 48 45 40 38 34 31 28 23 18 3 348 345 345 332 310 284 252 229 211 206 211 209 211 218 211 203 206 202 190 188 189 189 185 180 175 172 172 169 164 161 161 159 158 156 156 158 163 168 168 169 172 168 160 154 153 159 160 158 158 165 165 160 166 176 181 185 184 181 188 193 191
213 277 218 203 200 194 171 237 305 63 113 253 183 128 37 358 24 4 10 28 40 36 33 37 37 39 43 41 39 37 34 34 34 30 22 7 356 356 358 355 343 329 303 258 226 217 220 215 209 219 223 215 214 213 202 195 192 186 181 179 175 173 171 169 165 162 161 160 160 160 162 166 167 165 162 166 171 164 156 155 158 161 161 159 152 154 161 160 164 172 176 185 185 182 190 190 185
191 232 261 92 156 227 263 144 227 154 157 269 136 112 77 35 7 358 9 17 34 42 37 34 35 37 40 39 37 35 33 31 31 30 27 22 17 13 10 8 0 348 328 301 263 232 224 220 211 213 220 222 231 230 214 203 195 184 180 178 175 173 171 168 166 165 164 165 166 167 168 165 160 156 158 166 168 163 160 161 168 177 172 159 150 150 157 154 158 167 168 175 182 183 188 189 186
202 226 276 68 167 200 232 199 190 144 167 235 68 80 59 20 344 10 25 20 38 55 49 41 39 38 39 39 35 32 31 28 27 26 24 23 21 19 19 16 11 6 352 325 286 240 224 224 219 221 228 226 231 234 222 209 198 186 180 177 174 174 172 169 168 170 169 169 170 170 167 159 156 157 160 164 164 161 164 169 176 180 171 159 151 150 156 151 154 166 163 164 178 184 181 182 189
291 244 282 335 334 219 213 208 180 135 153 188 111 69 306 292 350 31 49 43 50 62 58 49 41 37 38 37 32 28 26 23 23 22 22 20 17 18 19 16 13 14 7 346 306 252 239 246 235 237 250 235 230 236 228 215 201 190 182 177 175 175 172 169 170 172 171 172 172 169 165 159 154 154 153 153 153 153 162 169 163 153 150 151 149 148 153 153 154 163 162 162 173 181 176 174 183
70 39 17 30 39 69 51 318 309 78 101 146 124 118 276 312 8 36 54 52 54 59 59 53 41 35 35 33 30 27 23 18 15 16 19 18 16 17 18 17 16 17 22 18 341 279 247 245 232 224 229 226 235 246 233 217 203 193 186 181 178 175 173 171 173 175 175 174 172 165 162 158 150 147 146 145 144 141 141 141 135 132 137 146 149 150 153 154 154 157 162 166 167 168 170 171 177